Location: La Brionne
(46.1728°N, 1.7849°E)
Time: 07:47:21
(UTC+00:00)

Cosmos 1943 Rocket - Pass Details

Date: 16 June 2021
Orbit: 813 x 843 km, 71.0° (Epoch: 01 August)

Event Time Altitude Azimuth Distance (km) Brightness Sun altitude
Rises 22:51:48 0° 341° (NNW) 3,348 7.0 -19.0°
Reaches altitude 10° 22:54:57 10° 359° (N) 2,412 5.7 -19.2°
Maximum altitude 22:58:52 19° 44° (NE) 1,837 4.3 -19.3°
Drops below altitude 10° 23:02:46 10° 90° (E) 2,407 4.4 -19.5°
Enters shadow 23:04:37 - 102° (ESE) 2,936 4.8 -19.6°
